Regional Weather Roundup
Issued by NWS

Home | Current Version | Previous Version | Text Only | Print | Product List | Glossary Off
Versions: 1 2 3 4 5 6 7 8 9 10 11 12 13 14 15 16 17 18 19 20 21 22 23 24 25 26 27 28 29 30 31 32 33 34 35 36 37 38 39 40 41 42 43 44 45 46 47 48 49

118
ASUS45 KBOU 070307
RWRCO

WEATHER ROUNDUP FOR COLORADO
NATIONAL WEATHER SERVICE DENVER/BOULDER CO
800 PM MST SAT FEB 06 2016

NOTE: "FAIR" INDICATES FEW OR NO CLOUDS BELOW 12000 FEET WITH NO
SIGNIFICANT WEATHER AND/OR OBSTRUCTIONS TO VISIBILITY.

COZ001>005-013-030-031-070400-
...NORTHWEST COLORADO...

CITY           SKY/WX    TMP DP  RH WIND       PRES   REMARKS
CRAIG          CLOUDY     5   1  83 CALM      30.40S
HAYDEN         CLOUDY    18   7  62 E8        30.38S WCI   7
MEEKER         CLOUDY    11   5  77 N3        30.39S
MOUNT WERNER   NOT AVBL
STEAMBOAT SPGS CLOUDY    15  10  78 CALM      30.38S
WALDEN         CLOUDY    30  14  51 SW16G22   30.31S WCI  19
$$

COZ006>008-011-070400-
...WEST CENTRAL VALLEYS...

CITY           SKY/WX    TMP DP  RH WIND       PRES   REMARKS
GRAND JUNCTION CLOUDY    13  10  88 NW3       30.49S
MONTROSE       CLOUDY    13   7  77 SE6       30.47R WCI   4
EAGLE          CLEAR     18  12  79 CALM      30.44R
RIFLE          CLOUDY    17   8  67 S3        30.47R
DELTA          CLOUDY    22  17  81 CALM      30.49R
NUCLA          CLOUDY    25  14  63 E7        30.47R WCI  17
$$

COZ017>023-064>068-070400-
...SOUTHWEST COLORADO...

CITY           SKY/WX    TMP DP  RH WIND       PRES   REMARKS
DURANGO        CLOUDY    19  10  68 N3        30.39R
CORTEZ         CLOUDY    20  14  77 NE6       30.41S WCI  12
PAGOSA SPRINGS CLOUDY    16  14  94 CALM      30.38S
TELLURIDE      CLOUDY    25  16  70 SE5       30.41S WCI  19
WOLF CREEK PAS CLOUDY    21   5  49 N6        30.42S WCI  14
$$

COZ009-010-012-014-032>034-037-058>063-070400-
...CENTRAL COLORADO...

CITY           SKY/WX    TMP DP  RH WIND       PRES   REMARKS
ASPEN          CLOUDY    13   7  77 S5        30.38R WCI   5
BUENA VISTA    CLOUDY    32  14  46 N13       30.28S WCI  22
COPPER MTN     CLOUDY    19  12  73 NW12      30.36S WCI   7
BERTHOUD PASS  FAIR      12   1  62 NW47G60   30.26R HAZE    WCI -13
COTTONWOOD PAS CLOUDY    34   7  32 SW14G26   30.29S WCI  24
GUNNISON       CLOUDY    -4 -17  54 CALM      30.47R
KREMMLING      CLOUDY     3  -2  78 CALM      30.42S
LEADVILLE      CLOUDY    16   9  74 N5        30.34R WCI   9
MONARCH PASS     N/A     12   9  85 MISG      30.41S
SALIDA         NOT AVBL
SUNLIGHT       CLOUDY    21  18  86 CALM        N/A
WILKERSON PASS CLOUDY    23   7  50 NW10G21   30.30R WCI  12
$$

COZ069>075-070400-
...SAN LUIS VALLEY/SANGRE DE CRISTO MOUNTAINS...

CITY           SKY/WX    TMP DP  RH WIND       PRES   REMARKS
ALAMOSA        CLOUDY    11   7  84 SE3       30.34R
LA VETA PASS   CLOUDY    19   9  63 MISG      30.28F
SAGUACHE       CLOUDY    12   5  73 CALM      30.35S
$$

COZ035-036-038>040-070400-
...NORTHERN COLORADO FRONT RANGE...

CITY           SKY/WX    TMP DP  RH WIND       PRES   REMARKS
DENVER INTL AP CLOUDY    41  19  41 SW9       30.10F
DMNS CITY PARK   N/A     46  11  24 N3G10     30.11F
AURORA         MOCLDY    42  17  36 W9        30.13S
FRONT RANGE AP MOCLDY    39  18  41 SW12      30.12S
ERIE MUNI ARPT CLOUDY    47  14  26 W5        30.10R
BOULDER MUN AP CLOUDY    45  14  29 E3        30.09F
CENTENNIAL     CLOUDY    43  15  32 W12       30.12F
BROOMFIELD     MOCLDY    46  14  27 CALM      30.12S
FORT COLLINS   CLOUDY    36  19  51 E8        30.10R
LONGMONT       CLOUDY    49  15  26 SW9       30.11S
$$

COZ041-046-047-076>085-087-088-070400-
...PIKES PEAK/PALMER DIVIDE AND SOUTHERN FOOTHILLS...

CITY           SKY/WX    TMP DP  RH WIND       PRES   REMARKS
COLO. SPRINGS  CLOUDY    32  15  49 N9        30.15R WCI  24
A. F. ACADEMY  CLOUDY    41  14  33 NW9       30.14R
SCHRIEVER AFB  FAIR      33  13  44 NW9       30.15R WCI  25
ELLICOTT       NOT AVBL
FALCON         CLOUDY    33  14  44 NW15      30.16S WCI  23
FORT CARSON    CLOUDY    26  15  63 N8        30.13R WCI  18
LIMON          CLOUDY    17  12  80 NW6       30.13R WCI   9
MONUMENT HILL  CLOUDY    32  14  47 W8        30.17F WCI  25
TRINIDAD       CLEAR     36  19  50 SW14      30.16S
$$

COZ042>045-048>051-090-091-070400-
...NORTHEAST COLORADO...

CITY           SKY/WX    TMP DP  RH WIND       PRES   REMARKS
GREELEY ARPT   CLOUDY    25  19  80 N7        30.10S WCI  17
AKRON          CLOUDY    35  25  66 W16       30.04F WCI  25
BURLINGTON     CLOUDY    31  19  61 W16       30.07S WCI  20
WRAY           CLOUDY    35  27  71 W9        30.03S WCI  28
STERLING       CLOUDY    30  23  74 SW9       30.03F WCI  22
HOLYOKE        CLOUDY    36  28  75 W13       30.02R
FORT MORGAN    CLOUDY    29  20  71 NW9       30.07S WCI  20
$$

COZ086-089-092>099-070400-
...SOUTHEAST COLORADO...

CITY           SKY/WX    TMP DP  RH WIND       PRES   REMARKS
PUEBLO         CLOUDY    31  21  66 N6        30.12S WCI  25
LA JUNTA       CLOUDY    30  24  78 SW7       30.11F WCI  23
LAMAR          CLOUDY    29  23  78 SW5       30.09F WCI  24
SPRINGFIELD      N/A     31  12  45 SW13      30.12F WCI  21
$$




USA.gov is the U.S. government's official web portal to all federal, state and local government web resources and services.